When you browse on this site, cookies collect data to enhance your experience and personalize the content and advertising you see.
Visit our Privacy Policy to learn more. By continuing to use the site, you agree to this use of cookies and data.

Hourly Weather Saint-Jean-de-la-Ruelle

Today, 10 July, Friday

Time Temperature Precipitation Wind Pressure Humidity
00:00 +18°C° 0 mm 3 mps 751 mmHg 90%
01:00 +18°C° 0 mm 3 mps 751 mmHg 91%
02:00 +17°C° 0 mm 3 mps 750 mmHg 93%
03:00 +17°C° 0 mm 3 mps 750 mmHg 94%
04:00 +17°C° 0 mm 3 mps 751 mmHg 91%
05:00 +18°C° 0 mm 3 mps 751 mmHg 87%
06:00 +18°C° 0 mm 2 mps 751 mmHg 82%
07:00 +19°C° 0.1 mm 3 mps 751 mmHg 79%
08:00 +19°C° 0.1 mm 3 mps 752 mmHg 75%
09:00 +20°C° 0.1 mm 4 mps 752 mmHg 72%
10:00 +20°C° 0.1 mm 4 mps 752 mmHg 71%
11:00 +20°C° 0.1 mm 3 mps 753 mmHg 71%
12:00 +20°C° 0.1 mm 3 mps 753 mmHg 70%
13:00 +21°C° 0 mm 3 mps 753 mmHg 66%
14:00 +21°C° 0 mm 3 mps 753 mmHg 62%
15:00 +22°C° 0 mm 3 mps 753 mmHg 59%
16:00 +21°C° 0 mm 3 mps 753 mmHg 60%
17:00 +21°C° 0 mm 3 mps 753 mmHg 61%
18:00 +20°C° 0 mm 4 mps 753 mmHg 61%
19:00 +19°C° 0 mm 3 mps 754 mmHg 65%
20:00 +17°C° 0 mm 3 mps 754 mmHg 69%
21:00 +14°C° 0 mm 3 mps 755 mmHg 73%
22:00 +13°C° 0 mm 3 mps 755 mmHg 75%
23:00 +13°C° 0 mm 3 mps 756 mmHg 77%

Tomorrow, 11 July, Saturday

Time Temperature Precipitation Wind Pressure Humidity
00:00 +12°C° 0 mm 3 mps 756 mmHg 78%
01:00 +11°C° 0 mm 3 mps 756 mmHg 81%
02:00 +10°C° 0 mm 3 mps 756 mmHg 83%
03:00 +10°C° 0 mm 2 mps 756 mmHg 85%
04:00 +10°C° 0 mm 2 mps 756 mmHg 82%
05:00 +12°C° 0 mm 2 mps 757 mmHg 79%
06:00 +12°C° 0 mm 3 mps 757 mmHg 76%
07:00 +14°C° 0 mm 3 mps 757 mmHg 68%
08:00 +17°C° 0 mm 3 mps 757 mmHg 60%
09:00 +19°C° 0 mm 3 mps 758 mmHg 52%
10:00 +20°C° 0 mm 3 mps 758 mmHg 48%
11:00 +21°C° 0 mm 3 mps 758 mmHg 45%
12:00 +22°C° 0 mm 3 mps 758 mmHg 41%
13:00 +24°C° 0 mm 3 mps 758 mmHg 40%
14:00 +24°C° 0 mm 3 mps 758 mmHg 39%
15:00 +24°C° 0 mm 3 mps 758 mmHg 38%
16:00 +24°C° 0 mm 3 mps 758 mmHg 43%
17:00 +22°C° 0 mm 3 mps 757 mmHg 48%
18:00 +21°C° 0 mm 3 mps 757 mmHg 53%
19:00 +20°C° 0 mm 3 mps 758 mmHg 58%
20:00 +18°C° 0 mm 3 mps 758 mmHg 63%
21:00 +16°C° 0 mm 3 mps 759 mmHg 68%
22:00 +14°C° 0 mm 3 mps 758 mmHg 71%
23:00 +13°C° 0 mm 3 mps 758 mmHg 74%

Day after tomorrow, 12 July, Sunday

Time Temperature Precipitation Wind Pressure Humidity
00:00 +13°C° 0 mm 3 mps 758 mmHg 77%
01:00 +12°C° 0 mm 3 mps 758 mmHg 77%
02:00 +12°C° 0 mm 3 mps 758 mmHg 77%
03:00 +11°C° 0 mm 3 mps 758 mmHg 77%
04:00 +12°C° 0 mm 3 mps 758 mmHg 76%
05:00 +12°C° 0 mm 4 mps 758 mmHg 75%
06:00 +13°C° 0 mm 4 mps 758 mmHg 74%
07:00 +14°C° 0 mm 4 mps 758 mmHg 68%
08:00 +17°C° 0 mm 4 mps 758 mmHg 63%
09:00 +19°C° 0 mm 4 mps 758 mmHg 57%
10:00 +20°C° 0 mm 4 mps 758 mmHg 52%
11:00 +22°C° 0 mm 4 mps 758 mmHg 48%
12:00 +23°C° 0 mm 4 mps 758 mmHg 43%
13:00 +23°C° 0 mm 4 mps 758 mmHg 43%
14:00 +25°C° 0 mm 4 mps 757 mmHg 42%
15:00 +25°C° 0 mm 4 mps 757 mmHg 42%
16:00 +25°C° 0 mm 4 mps 757 mmHg 47%
17:00 +23°C° 0 mm 4 mps 756 mmHg 51%
18:00 +22°C° 0 mm 4 mps 756 mmHg 55%
19:00 +21°C° 0 mm 4 mps 756 mmHg 59%
20:00 +19°C° 0 mm 4 mps 757 mmHg 63%
21:00 +17°C° 0 mm 4 mps 757 mmHg 66%
22:00 +17°C° 0 mm 4 mps 757 mmHg 68%
23:00 +16°C° 0 mm 3 mps 757 mmHg 71%

13 July, Monday

Time Temperature Precipitation Wind Pressure Humidity
00:00 +14°C° 0 mm 3 mps 757 mmHg 73%
01:00 +13°C° 0 mm 3 mps 757 mmHg 75%
02:00 +13°C° 0 mm 3 mps 756 mmHg 78%
03:00 +12°C° 0 mm 4 mps 756 mmHg 80%
04:00 +13°C° 0 mm 4 mps 756 mmHg 79%
05:00 +13°C° 0 mm 4 mps 756 mmHg 78%
06:00 +14°C° 0 mm 4 mps 756 mmHg 77%
07:00 +17°C° 0 mm 3 mps 756 mmHg 70%
08:00 +19°C° 0 mm 3 mps 756 mmHg 63%
09:00 +21°C° 0 mm 3 mps 756 mmHg 56%
10:00 +24°C° 0 mm 3 mps 756 mmHg 51%
11:00 +25°C° 0 mm 4 mps 756 mmHg 46%
12:00 +27°C° 0 mm 4 mps 756 mmHg 41%
13:00 +27°C° 0 mm 3 mps 755 mmHg 40%
14:00 +27°C° 0 mm 3 mps 755 mmHg 39%
15:00 +27°C° 0 mm 3 mps 754 mmHg 38%
16:00 +27°C° 0 mm 3 mps 754 mmHg 43%
17:00 +26°C° 0 mm 3 mps 754 mmHg 47%
18:00 +25°C° 0 mm 2 mps 754 mmHg 52%
19:00 +23°C° 0 mm 2 mps 754 mmHg 56%
20:00 +20°C° 0 mm 2 mps 754 mmHg 61%
21:00 +18°C° 0 mm 2 mps 754 mmHg 65%
22:00 +18°C° 0 mm 3 mps 754 mmHg 67%
23:00 +17°C° 0 mm 3 mps 754 mmHg 69%

14 July, Tuesday

Time Temperature Precipitation Wind Pressure Humidity
00:00 +16°C° 0 mm 3 mps 754 mmHg 72%
01:00 +16°C° 0 mm 2 mps 754 mmHg 72%
02:00 +16°C° 0 mm 2 mps 753 mmHg 72%
03:00 +15°C° 0 mm 2 mps 753 mmHg 73%
04:00 +15°C° 0 mm 2 mps 753 mmHg 73%
05:00 +16°C° 0 mm 2 mps 753 mmHg 74%
06:00 +16°C° 0 mm 2 mps 753 mmHg 74%
07:00 +18°C° 0 mm 2 mps 753 mmHg 68%
08:00 +19°C° 0 mm 2 mps 753 mmHg 62%
09:00 +21°C° 0 mm 2 mps 753 mmHg 56%
10:00 +23°C° 0 mm 2 mps 753 mmHg 53%
11:00 +24°C° 0 mm 2 mps 753 mmHg 51%
12:00 +24°C° 0 mm 3 mps 753 mmHg 48%
13:00 +24°C° 0 mm 3 mps 753 mmHg 46%
14:00 +25°C° 0 mm 3 mps 752 mmHg 45%
15:00 +25°C° 0 mm 3 mps 752 mmHg 44%
16:00 +24°C° 0 mm 3 mps 752 mmHg 48%
17:00 +22°C° 0 mm 3 mps 752 mmHg 52%
18:00 +20°C° 0 mm 3 mps 752 mmHg 57%
19:00 +19°C° 0 mm 2 mps 752 mmHg 61%
20:00 +18°C° 0 mm 2 mps 752 mmHg 66%
21:00 +16°C° 0 mm 1 mps 752 mmHg 70%
22:00 +16°C° 0 mm 1 mps 753 mmHg 73%
23:00 +15°C° 0 mm 1 mps 753 mmHg 75%

15 July, Wednesday

Time Temperature Precipitation Wind Pressure Humidity
00:00 +14°C° 0 mm 1 mps 753 mmHg 78%
01:00 +14°C° 0 mm 1 mps 752 mmHg 81%
02:00 +14°C° 0 mm 1 mps 752 mmHg 85%
03:00 +13°C° 0 mm 2 mps 752 mmHg 88%
04:00 +14°C° 0 mm 1 mps 752 mmHg 87%
05:00 +15°C° 0 mm 1 mps 753 mmHg 86%
06:00 +15°C° 0 mm 1 mps 753 mmHg 85%
07:00 +17°C° 0 mm 2 mps 753 mmHg 77%
08:00 +18°C° 0 mm 2 mps 753 mmHg 69%
09:00 +20°C° 0 mm 3 mps 753 mmHg 61%
10:00 +21°C° 0 mm 3 mps 753 mmHg 57%
11:00 +22°C° 0 mm 3 mps 753 mmHg 53%
12:00 +24°C° 0 mm 3 mps 753 mmHg 49%
13:00 +24°C° 0 mm 3 mps 753 mmHg 47%
14:00 +25°C° 0 mm 3 mps 753 mmHg 46%
15:00 +25°C° 0 mm 3 mps 753 mmHg 44%
16:00 +25°C° 0 mm 3 mps 753 mmHg 48%
17:00 +24°C° 0 mm 3 mps 753 mmHg 53%
18:00 +22°C° 0 mm 3 mps 753 mmHg 57%
19:00 +21°C° 0 mm 3 mps 754 mmHg 64%
20:00 +19°C° 0 mm 2 mps 754 mmHg 70%
21:00 +18°C° 0 mm 2 mps 754 mmHg 77%
22:00 +17°C° 0 mm 2 mps 755 mmHg 82%
23:00 +16°C° 0 mm 2 mps 755 mmHg 86%
Show more